Change the Weather History Date:

Monday, August 26, 2013

  Actual Average Record
Temperature  
Mean Temperature 68 °F -  
Max Temperature 80 °F 80 °F 88 °F (1937)
Min Temperature 57 °F 50 °F 37 °F (1975)
Cooling Degree Days 4    
Growing Degree Days 18 (Base 50)    
Moisture  
Dew Point 54 °F    
Average Humidity 67    
Maximum Humidity 94    
Minimum Humidity 30    
Precipitation  
Precipitation 0.00 in - - ()
Sea Level Pressure  
Sea Level Pressure 30.08 in    
Wind  
Wind Speed 4 mph (East)    
Max Wind Speed 16 mph    
Max Gust Speed 18 mph    
Visibility 10 miles    
Events      
Averages and records for this station are not official NWS values.
T = Trace of Precipitation, MM = Missing Value Source: NWS Daily Summary

Daily Weather History Graph

Daily Weather History Graph

Search for Another Location

Airport or City:

Trip Planner

Search our weather history database for the weather conditions in past years. The results will help you decide how hot, cold, wet, or windy it might be!

Date:

Astronomy

Aug. 26, 2013 Rise Set
Actual Time 6:44 AM MDT 7:51 PM MDT
Civil Twilight 6:17 AM MDT 8:17 PM MDT
Nautical Twilight 5:46 AM MDT 8:48 PM MDT
Astronomical Twilight 5:13 AM MDT 9:21 PM MDT
Moon 11:18 PM MDT (8/26) 12:34 PM MDT (8/26)
Length of Visible Light 13h 59m
Length of Day
13h 07m
Waning Gibbous, 66% of the Moon is Illuminated
Aug 26
Waning Gibbous
Aug 28
Last Quarter
Sep 5
New
Sep 12
First Quarter
Sep 19
Full

Hourly Weather History & Observations

Time (MDT) Temp. Dew Point Humidity Pressure Visibility Wind Dir Wind Speed Gust Speed Precip Events Conditions
12:53 AM 61.0 °F 57.0 °F 87% 30.05 in 10.0 mi Calm Calm - 0.00 in   Overcast
1:53 AM 61.0 °F 57.0 °F 87% 30.04 in 10.0 mi Calm Calm - 0.00 in   Overcast
2:53 AM 60.1 °F 57.0 °F 90% 30.03 in 10.0 mi East 3.5 mph - 0.00 in   Overcast
3:53 AM 59.0 °F 55.9 °F 90% 30.05 in 10.0 mi Calm Calm - N/A   Scattered Clouds
4:53 AM 57.9 °F 55.9 °F 93% 30.04 in 10.0 mi East 5.8 mph - N/A   Clear
5:43 AM 59.0 °F 55.4 °F 88% 30.38 in 10.0 mi Calm Calm - N/A   Partly Cloudy
5:53 AM 60.1 °F 57.0 °F 90% 30.08 in 10.0 mi ENE 6.9 mph - N/A   Partly Cloudy
6:16 AM 59.0 °F 57.2 °F 94% 30.38 in 10.0 mi ENE 5.8 mph - N/A   Mostly Cloudy
6:43 AM 59.0 °F 57.2 °F 94% 30.38 in 10.0 mi ENE 5.8 mph - N/A   Overcast
6:53 AM 59.0 °F 57.0 °F 93% 30.09 in 10.0 mi East 6.9 mph - N/A   Overcast
7:48 AM 60.8 °F 55.4 °F 82% 30.39 in 10.0 mi ENE 4.6 mph - N/A   Scattered Clouds
7:53 AM 60.1 °F 55.9 °F 86% 30.11 in 10.0 mi ENE 3.5 mph - N/A   Partly Cloudy
8:53 AM 64.0 °F 55.9 °F 75% 30.10 in 10.0 mi ENE 4.6 mph - N/A   Clear
9:53 AM 66.9 °F 55.9 °F 68% 30.09 in 10.0 mi Variable 3.5 mph - N/A   Clear
10:53 AM 70.0 °F 55.0 °F 59% 30.08 in 10.0 mi Variable 6.9 mph - N/A   Clear
11:53 AM 75.0 °F 55.0 °F 50% 30.05 in 10.0 mi East 8.1 mph - N/A   Clear
12:53 PM 75.9 °F 54.0 °F 46% 30.01 in 10.0 mi Variable 5.8 mph 17.3 mph N/A   Partly Cloudy
1:53 PM 79.0 °F 48.0 °F 34% 29.98 in 10.0 mi South 5.8 mph 18.4 mph N/A   Partly Cloudy
2:53 PM 79.0 °F 48.0 °F 34% 29.96 in 10.0 mi ESE 8.1 mph - N/A   Mostly Cloudy
3:53 PM 77.0 °F 45.0 °F 32% 29.96 in 10.0 mi SE 5.8 mph - 0.00 in   Overcast
4:53 PM 80.1 °F 46.0 °F 30% 29.92 in 10.0 mi Variable 6.9 mph - N/A   Clear
5:15 PM 77.0 °F 48.2 °F 36% 30.28 in 10.0 mi ENE 16.1 mph - N/A   Clear
5:53 PM 77.0 °F 48.9 °F 37% 29.93 in 10.0 mi ENE 10.4 mph 16.1 mph N/A   Clear
6:53 PM 72.0 °F 48.9 °F 44% 29.94 in 10.0 mi East 9.2 mph - N/A   Partly Cloudy
7:53 PM 69.1 °F 53.1 °F 57% 29.97 in 10.0 mi Variable 5.8 mph - N/A   Partly Cloudy
8:53 PM 66.0 °F 53.1 °F 63% 29.98 in 10.0 mi Calm Calm - N/A   Scattered Clouds
9:53 PM 66.9 °F 53.1 °F 61% 29.98 in 10.0 mi Calm Calm - N/A   Clear
10:53 PM 63.0 °F 54.0 °F 72% 29.99 in 10.0 mi ESE 5.8 mph - N/A   Clear
11:53 PM 62.1 °F 53.1 °F 72% 29.96 in 10.0 mi Calm Calm - N/A   Scattered Clouds